User: anonymous   Login
Location: Beddau
(51.5575°N, 3.3561°W)
Time: 04:54:59
(UTC+00:00)
Language:

Meteor 1-13 Rocket - Orbit

View from above orbital plane
View from above orbital plane
View from above satellite
View from above satellite

Ground track
Ground track

The orbit data is extracted from the following two-line orbital elements,

1 06257U 72085B   21125.39913309  .00000152  00000-0  82805-4 0  9995
2 06257  81.2614 229.2782 0057758  98.9657 261.8056 14.06466419488573
Epoch (UTC): 05 May 2021 09:34:45
Eccentricity: 0.0057758
inclination: 81.2614°
perigee height: 829 km
apogee height: 913 km
right ascension of ascending node: 229.2782°
argument of perigee: 98.9657°
revolutions per day: 14.06466419
mean anomaly at epoch: 261.8056°
orbit number at epoch: 48857

The dashed part of the orbit path shows where the satellite is in the earth's shadow,  

DLR